Wind_Speed
31 31 31 30 31 28 23 21 24 26 24 25 26 27 28 30 31 31 28 29 30 29 27 26 23 25 26 26 25 24 21 20 20 20 18 17 19 20 21 21 21 21 21 21 21 22 22 22 21
32 33 33 32 32 27 21 24 25 27 26 24 24 24 25 28 28 29 29 28 29 30 29 30 31 29 26 25 25 25 25 25 25 24 25 25 24 23 22 24 24 23 23 24 23 24 24 25 25
33 34 35 35 32 25 21 26 29 28 28 27 25 26 27 27 27 26 27 29 30 32 32 33 32 31 28 27 24 24 24 26 27 28 28 26 24 24 24 23 24 25 25 25 25 25 26 26 27
33 36 38 37 30 24 22 29 33 32 32 30 29 28 27 27 28 30 30 31 31 32 33 32 32 31 28 26 26 25 24 24 23 24 25 24 24 22 24 24 23 23 24 24 25 26 27 27 28
37 37 39 38 28 24 24 32 37 33 32 33 32 29 28 28 29 30 33 34 35 32 34 33 31 29 28 28 27 25 26 26 25 24 24 24 24 24 24 24 24 24 24 25 26 27 27 27 28
42 43 42 37 27 26 28 33 38 34 33 33 32 29 29 29 30 32 34 34 35 33 33 33 31 27 24 24 25 26 26 27 28 28 26 26 26 26 26 26 27 28 29 30 32 32 33 33 34
47 45 44 37 30 28 28 36 41 34 34 31 33 31 29 29 32 34 33 32 34 36 34 32 29 26 26 26 26 26 25 25 26 27 26 25 25 25 26 26 27 28 29 29 29 30 31 31 32
41 42 47 42 34 30 32 39 38 37 32 34 33 30 29 31 31 32 31 31 29 29 29 29 28 27 26 26 27 26 26 25 25 24 24 24 23 22 21 21 20 20 20 20 21 22 23 25 27
44 45 45 40 40 33 32 38 38 36 33 32 31 30 30 31 28 29 29 23 25 25 26 26 25 24 25 24 23 22 23 23 23 22 20 18 16 15 14 14 16 18 20 22 24 26 27 29 31
39 39 31 28 27 26 34 41 38 36 32 31 29 29 30 30 28 29 26 25 27 29 29 28 27 26 25 25 24 22 20 18 17 17 16 15 14 15 17 19 20 21 22 23 25 26 27 28 30
36 34 29 29 29 28 35 41 37 35 32 29 28 30 29 30 30 27 28 27 26 25 24 24 24 24 23 21 20 19 18 17 17 16 16 16 18 19 21 22 22 23 24 23 22 22 23 25 28
37 32 31 31 32 32 38 39 36 36 29 28 29 28 28 30 29 27 27 26 26 27 25 21 19 18 18 19 20 20 20 19 19 19 20 20 21 23 24 24 25 25 25 24 25 26 26 28 31
38 35 31 34 36 32 39 38 38 35 31 31 29 25 27 29 28 28 28 27 25 23 21 21 21 20 21 21 22 22 22 21 21 22 23 24 25 26 27 27 27 26 26 26 27 29 30 32 35
32 36 32 34 37 34 39 35 40 31 33 33 31 28 28 27 28 27 26 27 26 25 24 22 21 22 22 23 23 23 24 25 25 26 26 27 27 27 28 29 29 28 29 30 31 33 36 38 38
34 33 36 34 35 35 38 38 34 29 34 35 33 30 28 31 31 25 27 28 27 25 22 22 23 23 24 24 24 25 26 26 27 27 28 28 28 29 30 30 30 31 32 33 35 38 40 42 44
31 33 39 31 34 35 39 35 33 32 37 36 34 32 31 31 30 30 29 28 26 24 24 24 25 24 23 24 25 26 26 28 29 31 30 30 29 30 31 31 32 33 34 37 40 43 46 49 51
31 32 31 36 34 36 40 35 31 35 39 39 37 36 35 33 31 30 29 28 27 27 26 26 26 24 23 25 25 26 28 29 31 31 31 31 31 32 33 33 33 35 38 41 45 49 52 54 55
32 35 35 37 36 42 43 37 35 38 43 41 41 40 37 35 31 32 32 30 30 28 27 27 26 24 25 27 28 29 30 31 32 32 32 32 33 34 35 35 37 40 43 47 51 54 57 58 62
37 37 38 33 39 46 42 40 35 39 46 41 44 42 38 36 35 36 32 30 29 27 26 27 27 26 27 29 30 31 32 32 33 33 33 34 35 36 38 40 41 44 47 52 56 58 59 64 68
39 37 35 32 37 45 44 43 36 41 44 41 42 43 40 38 37 34 31 29 28 28 28 26 25 24 26 28 29 31 32 32 33 34 34 36 36 38 41 42 44 47 51 56 57 59 63 69 70
39 37 32 33 37 45 47 49 38 39 46 41 43 45 43 40 36 34 31 30 30 28 27 28 26 25 25 28 29 30 31 31 32 33 35 36 37 38 40 42 45 49 53 55 58 63 70 64 56
40 37 37 36 38 42 44 50 41 40 45 43 43 46 44 41 38 35 33 32 30 30 30 28 27 27 27 28 29 29 29 30 31 33 35 36 37 38 40 42 46 51 53 56 61 68 60 54 48
39 38 39 39 40 45 41 50 41 40 43 42 41 45 44 41 39 38 35 34 35 35 32 30 29 27 28 29 30 29 29 29 31 33 35 36 36 38 39 44 48 50 54 60 67 52 47 42 42
43 40 38 39 40 45 42 43 39 42 35 36 39 43 44 43 41 39 37 37 37 35 31 29 29 29 30 31 30 29 29 29 31 33 34 34 35 37 41 44 46 51 57 63 47 40 39 40 39
40 42 40 41 40 42 43 43 43 36 34 34 39 41 44 43 41 39 36 36 35 35 33 32 32 31 31 30 30 29 29 30 31 32 32 32 35 37 41 42 47 53 58 44 37 35 29 30 37
39 34 38 41 42 44 42 39 41 34 35 34 36 40 41 42 40 37 36 36 37 36 34 34 32 31 30 30 30 29 30 31 31 31 31 33 34 37 38 42 47 53 38 32 32 27 27 35 36
32 36 42 39 42 44 42 41 37 29 32 37 35 40 40 40 39 37 37 37 38 35 35 34 33 32 31 31 30 30 31 31 31 29 31 32 33 33 37 40 48 36 29 29 26 26 31 36 30
38 36 32 40 48 44 43 42 38 28 33 37 36 38 40 41 39 38 38 38 38 38 38 35 34 33 32 31 31 30 31 30 30 29 30 31 29 32 34 39 35 28 27 25 29 29 28 31 32
37 39 40 38 40 48 49 43 37 29 29 34 41 40 44 41 40 38 39 40 40 39 37 35 34 35 33 33 31 31 31 30 30 28 29 26 27 28 32 32 27 24 22 22 20 21 22 22 24
37 39 41 44 42 40 46 51 41 35 31 31 32 43 40 44 46 45 43 41 40 37 36 35 36 35 35 34 32 32 31 31 28 28 26 23 25 24 25 24 19 18 18 17 19 20 22 23 28
Wind_Direction
252 254 253 252 252 256 259 257 249 250 242 241 244 247 254 252 251 250 246 243 245 246 246 245 246 247 251 252 250 253 249 246 242 239 246 250 253 256 256 252 250 253 252 255 257 257 257 260 259
254 253 254 252 252 254 257 253 249 248 244 242 240 244 245 252 250 253 255 247 243 243 243 243 246 248 250 251 253 252 253 254 251 250 259 260 260 259 258 257 258 256 255 254 255 260 262 264 267
255 254 254 250 251 257 255 253 251 247 245 243 243 246 248 250 254 253 251 251 246 242 240 239 246 247 250 249 250 252 252 252 256 259 263 264 262 257 256 259 258 261 264 264 264 263 264 263 262
260 257 255 251 251 252 247 252 252 245 246 245 247 248 250 253 252 254 252 251 249 249 246 238 241 246 248 253 250 253 258 257 255 255 258 260 261 258 255 257 263 264 264 267 268 270 270 271 271
257 260 256 251 251 251 247 248 255 253 249 249 248 251 253 253 256 257 256 251 249 250 243 243 243 246 251 253 255 253 256 258 259 259 259 260 262 264 264 265 264 266 271 274 277 279 279 279 278
253 254 255 254 255 251 248 250 255 253 253 250 251 253 256 258 259 257 256 256 248 245 244 242 243 244 246 250 251 251 252 258 263 264 265 266 266 267 267 267 268 271 276 278 280 281 281 281 282
257 248 251 250 244 245 244 250 254 253 251 252 249 252 255 256 256 260 260 250 242 242 241 237 244 244 244 247 251 253 253 255 260 262 264 267 269 269 269 269 270 271 272 274 276 277 277 278 278
253 252 248 250 247 244 243 247 254 253 246 245 248 252 257 255 254 257 249 241 239 235 231 232 239 243 246 249 251 252 252 253 256 261 263 265 269 269 267 266 266 266 269 272 277 281 283 285 286
254 253 251 252 252 245 243 246 248 248 245 247 249 254 254 252 249 247 241 235 233 227 221 226 235 241 244 246 248 248 251 252 252 252 253 253 252 252 254 258 264 270 273 275 277 277 277 278 278
246 251 254 249 244 235 238 245 245 245 243 244 250 253 252 247 240 234 227 222 225 223 227 232 236 241 244 245 247 246 242 234 230 227 226 231 243 254 262 266 268 270 272 274 274 276 279 281 283
249 252 249 244 242 227 238 244 242 244 241 244 246 245 247 241 233 225 221 218 222 223 223 226 232 237 238 231 222 221 219 219 222 227 234 246 259 268 271 274 275 276 275 275 276 280 283 287 288
253 244 247 242 239 227 239 241 241 241 239 241 243 243 243 237 233 225 220 219 219 220 222 223 220 217 212 214 217 218 220 227 233 238 245 256 266 274 276 276 276 276 275 276 278 282 286 289 292
260 245 244 243 238 229 241 239 239 239 238 238 238 237 237 231 225 217 216 213 212 210 206 205 208 212 216 220 224 227 230 237 243 248 255 263 271 277 281 282 284 283 283 281 283 284 286 288 290
263 251 239 241 242 236 244 240 238 237 240 237 233 226 223 217 215 210 206 205 201 200 203 204 213 222 225 227 229 233 239 245 251 256 262 268 275 281 284 286 287 289 287 286 288 291 292 292 290
261 254 242 242 244 243 249 237 235 235 237 234 228 224 218 215 215 207 202 201 203 207 209 215 221 228 231 234 237 242 247 253 259 264 268 271 277 281 283 286 288 289 289 292 294 294 294 295 295
259 260 247 242 245 244 245 228 233 230 234 235 226 221 218 215 208 207 208 210 212 217 221 224 226 229 234 238 242 250 258 263 267 269 271 272 274 277 279 284 287 290 293 295 297 297 298 298 297
258 260 261 245 244 245 241 235 227 228 230 232 225 221 220 218 214 213 213 217 220 224 229 234 239 238 239 244 250 255 259 264 267 270 272 273 272 273 276 282 286 289 293 296 298 299 298 299 299
258 257 256 244 239 238 234 234 227 227 230 229 226 222 222 220 217 218 217 221 225 228 233 238 243 245 245 250 254 258 261 265 269 270 270 270 271 272 276 284 287 290 295 298 298 298 301 300 298
253 258 259 254 246 239 240 233 232 228 231 228 228 224 223 222 221 222 224 225 229 230 232 236 241 244 247 252 255 259 263 266 269 270 270 270 272 273 276 283 289 293 296 299 300 302 303 301 302
253 257 261 265 256 245 237 236 234 231 234 232 230 227 226 226 227 229 227 227 228 228 231 237 245 251 255 259 262 266 267 269 270 273 273 272 276 277 279 284 290 295 298 300 302 304 303 304 304
253 255 258 261 251 245 238 235 232 229 237 233 229 227 224 227 230 231 230 229 230 233 235 240 248 256 262 264 264 266 268 271 272 273 273 275 277 279 283 289 294 296 299 302 306 304 305 306 303
251 255 254 253 249 251 246 244 226 227 236 234 229 227 225 227 231 232 230 230 232 235 238 244 251 256 261 263 265 266 269 272 273 275 277 278 280 285 290 293 296 299 302 306 305 306 306 304 305
251 250 254 257 255 254 248 251 218 227 235 235 230 227 226 227 229 231 231 232 233 235 239 245 254 261 263 264 264 267 270 272 274 276 279 281 286 289 292 297 299 303 308 307 307 306 306 307 309
250 250 251 259 260 258 254 253 240 222 234 235 230 225 225 227 230 232 233 235 238 242 246 250 256 257 259 261 264 266 270 273 276 278 280 284 289 292 296 299 303 309 309 308 309 308 309 311 311
251 252 253 254 258 259 258 253 254 228 228 231 232 227 227 230 233 235 236 239 242 244 245 248 252 255 258 261 262 264 269 272 276 280 284 288 291 295 298 304 310 311 309 311 310 315 322 327 320
249 253 259 257 255 256 258 245 250 237 232 232 230 233 231 231 234 238 239 239 241 243 246 250 254 255 256 258 261 264 269 273 277 281 286 289 292 296 303 308 312 312 312 314 319 323 321 326 324
254 254 250 259 256 260 251 247 250 241 235 234 228 231 236 237 237 237 238 239 242 246 248 249 249 251 254 256 259 263 267 271 275 278 284 286 291 298 305 314 315 316 315 319 325 320 327 327 320
256 256 258 252 254 253 250 248 252 251 242 236 231 229 232 234 236 237 239 241 242 244 246 247 250 250 252 257 258 261 264 269 272 278 279 285 292 300 309 318 318 318 317 318 323 328 331 333 343
258 256 256 257 255 252 251 246 251 248 240 236 230 233 234 237 234 235 237 238 239 240 242 244 247 249 251 254 256 259 262 267 271 271 275 282 291 301 314 318 327 326 336 336 347 360 11 14 10
261 259 255 256 256 259 258 242 253 257 245 237 235 228 231 233 237 237 237 235 236 238 241 243 244 247 249 252 254 257 259 265 264 265 273 277 288 300 312 323 345 350 2 17 17 11 3 356 355
Height
5765 5767 5768 5770 5773 5772 5776 5780 5779 5781 5783 5784 5785 5787 5789 5791 5792 5796 5799 5800 5801 5801 5803 5805 5807 5809 5810 5811 5813 5815 5815 5817 5819 5821 5823 5824 5825 5827 5827 5828 5828 5830 5831 5831 5833 5834 5834 5836 5836
5759 5761 5763 5764 5766 5769 5774 5774 5775 5776 5778 5780 5782 5783 5784 5786 5787 5789 5792 5794 5796 5798 5799 5800 5802 5804 5806 5808 5810 5812 5813 5814 5815 5817 5819 5821 5822 5823 5823 5825 5825 5826 5827 5828 5828 5830 5831 5832 5832
5753 5754 5757 5757 5760 5766 5770 5768 5768 5771 5774 5776 5778 5779 5780 5782 5783 5785 5786 5788 5790 5792 5794 5795 5796 5799 5802 5804 5806 5808 5810 5810 5811 5813 5814 5816 5817 5818 5820 5821 5821 5822 5823 5824 5825 5826 5827 5828 5828
5747 5749 5751 5752 5757 5762 5763 5762 5762 5765 5768 5770 5772 5773 5776 5777 5777 5779 5782 5782 5783 5785 5787 5789 5792 5795 5797 5799 5801 5803 5806 5807 5808 5808 5809 5810 5812 5813 5815 5816 5817 5818 5818 5820 5821 5822 5823 5823 5824
5740 5743 5743 5747 5753 5757 5757 5755 5755 5760 5763 5765 5766 5769 5771 5772 5773 5774 5775 5776 5778 5781 5783 5785 5787 5790 5792 5795 5797 5798 5800 5802 5804 5804 5805 5806 5807 5809 5810 5811 5813 5814 5815 5815 5816 5817 5818 5819 5819
5734 5736 5738 5743 5749 5750 5751 5749 5749 5754 5757 5759 5762 5764 5766 5767 5767 5768 5768 5771 5773 5775 5777 5780 5782 5785 5787 5790 5792 5794 5795 5797 5799 5800 5800 5801 5802 5804 5806 5807 5808 5809 5810 5811 5811 5811 5812 5812 5813
5727 5729 5731 5735 5742 5743 5745 5743 5743 5750 5751 5754 5756 5757 5761 5761 5761 5761 5763 5765 5767 5769 5771 5774 5778 5780 5783 5785 5787 5789 5790 5791 5794 5795 5796 5797 5798 5799 5800 5801 5802 5803 5804 5804 5805 5805 5805 5805 5805
5720 5721 5723 5729 5735 5738 5737 5736 5739 5741 5746 5747 5750 5754 5754 5753 5754 5756 5757 5758 5760 5763 5766 5769 5772 5775 5778 5781 5783 5784 5786 5786 5789 5791 5792 5792 5793 5794 5795 5796 5797 5797 5798 5799 5799 5799 5800 5800 5800
5711 5711 5716 5724 5725 5730 5729 5728 5731 5734 5739 5741 5744 5746 5747 5745 5749 5751 5752 5755 5757 5758 5762 5764 5767 5770 5773 5776 5778 5780 5782 5783 5784 5786 5787 5788 5789 5790 5791 5792 5793 5793 5794 5794 5793 5793 5793 5793 5793
5701 5704 5712 5714 5715 5720 5721 5720 5725 5728 5732 5736 5739 5739 5739 5739 5743 5746 5747 5750 5752 5753 5756 5760 5762 5765 5768 5770 5773 5775 5776 5778 5780 5781 5783 5785 5786 5787 5788 5789 5789 5789 5789 5788 5788 5787 5787 5787 5786
5695 5698 5703 5705 5707 5711 5713 5713 5718 5721 5726 5730 5732 5731 5732 5734 5737 5740 5743 5745 5747 5751 5754 5756 5758 5760 5763 5766 5768 5771 5773 5775 5777 5779 5781 5782 5783 5784 5784 5785 5785 5784 5784 5783 5782 5782 5781 5781 5780
5687 5692 5695 5698 5700 5702 5705 5707 5713 5715 5721 5723 5724 5726 5728 5730 5733 5736 5739 5740 5743 5746 5749 5751 5755 5758 5760 5763 5765 5768 5770 5772 5774 5776 5777 5778 5779 5780 5780 5780 5780 5779 5779 5777 5777 5776 5775 5774 5773
5679 5685 5687 5690 5692 5695 5697 5702 5705 5710 5714 5717 5718 5721 5725 5727 5729 5731 5732 5736 5740 5742 5744 5748 5751 5755 5757 5759 5762 5765 5767 5769 5771 5772 5773 5774 5774 5775 5775 5775 5774 5773 5772 5771 5770 5769 5768 5766 5764
5676 5678 5679 5682 5685 5688 5690 5697 5697 5707 5708 5711 5713 5715 5719 5722 5725 5726 5729 5733 5735 5737 5740 5743 5748 5751 5753 5756 5759 5761 5763 5765 5766 5767 5768 5769 5769 5769 5768 5768 5768 5767 5766 5764 5763 5761 5759 5757 5755
5669 5672 5673 5676 5680 5682 5684 5688 5695 5700 5700 5702 5707 5710 5714 5718 5720 5725 5725 5728 5730 5734 5738 5741 5744 5747 5749 5752 5754 5757 5759 5760 5761 5762 5762 5762 5762 5762 5762 5761 5760 5759 5758 5756 5754 5752 5750 5748 5745
5663 5663 5666 5672 5671 5674 5676 5681 5688 5692 5692 5697 5701 5704 5708 5712 5717 5719 5722 5724 5727 5731 5734 5736 5740 5743 5746 5748 5750 5752 5753 5754 5755 5755 5756 5756 5756 5755 5755 5754 5753 5752 5750 5748 5745 5742 5740 5737 5733
5657 5658 5659 5661 5664 5665 5666 5673 5681 5683 5684 5688 5693 5698 5702 5706 5711 5716 5718 5721 5723 5726 5729 5731 5734 5738 5741 5743 5744 5746 5747 5748 5749 5749 5749 5750 5749 5749 5748 5747 5746 5744 5741 5739 5736 5732 5729 5725 5721
5648 5649 5650 5653 5656 5655 5656 5664 5672 5675 5675 5681 5686 5691 5697 5701 5707 5709 5712 5715 5718 5721 5724 5726 5729 5732 5735 5737 5738 5740 5740 5741 5741 5742 5742 5742 5742 5741 5740 5739 5737 5735 5732 5729 5725 5721 5715 5711 5707
5640 5641 5643 5646 5647 5646 5650 5656 5664 5666 5666 5674 5680 5685 5691 5697 5699 5701 5706 5710 5714 5717 5719 5721 5723 5727 5729 5731 5732 5733 5733 5734 5734 5735 5735 5735 5734 5734 5733 5731 5729 5726 5723 5718 5713 5709 5703 5696 5690
5632 5634 5637 5639 5639 5638 5642 5646 5655 5659 5661 5669 5674 5680 5686 5690 5692 5696 5700 5704 5708 5711 5713 5716 5718 5721 5723 5725 5725 5725 5726 5726 5727 5727 5727 5727 5727 5726 5725 5723 5720 5717 5712 5707 5702 5696 5691 5683 5673
5625 5626 5629 5630 5629 5628 5632 5634 5646 5652 5652 5661 5666 5672 5678 5683 5686 5691 5695 5698 5701 5705 5707 5709 5712 5715 5716 5717 5718 5718 5718 5719 5719 5720 5720 5720 5720 5718 5717 5715 5712 5707 5703 5697 5691 5683 5675 5667 5659
5617 5619 5619 5621 5621 5621 5625 5623 5638 5643 5645 5652 5658 5663 5671 5676 5680 5684 5689 5692 5695 5698 5700 5703 5706 5708 5709 5710 5710 5711 5711 5712 5712 5713 5713 5712 5712 5711 5709 5706 5702 5697 5692 5686 5678 5669 5661 5655 5649
5609 5611 5612 5614 5614 5613 5618 5615 5633 5635 5638 5645 5651 5656 5662 5668 5672 5676 5681 5684 5686 5689 5693 5696 5698 5700 5701 5702 5702 5703 5704 5705 5705 5705 5705 5705 5704 5703 5700 5697 5693 5687 5682 5673 5665 5657 5651 5645 5640
5600 5603 5604 5606 5607 5605 5612 5612 5616 5628 5633 5637 5642 5647 5653 5659 5663 5667 5672 5675 5677 5681 5685 5689 5691 5692 5694 5694 5695 5696 5697 5697 5698 5698 5698 5697 5696 5694 5691 5688 5683 5677 5670 5661 5654 5648 5642 5636 5631
5593 5595 5597 5598 5598 5597 5602 5606 5603 5623 5627 5630 5634 5640 5645 5650 5655 5660 5664 5668 5671 5674 5677 5680 5682 5684 5685 5686 5687 5688 5689 5690 5691 5691 5691 5690 5688 5686 5683 5679 5674 5667 5659 5651 5646 5640 5634 5629 5624
5585 5588 5590 5588 5589 5589 5592 5593 5597 5613 5620 5625 5628 5632 5637 5642 5647 5652 5655 5659 5662 5665 5668 5671 5673 5675 5677 5678 5679 5680 5681 5682 5683 5684 5684 5683 5681 5679 5675 5671 5665 5657 5649 5644 5639 5634 5630 5624 5619
5579 5579 5582 5580 5581 5579 5583 5587 5590 5602 5612 5616 5620 5624 5627 5632 5637 5642 5646 5650 5653 5657 5660 5662 5664 5666 5668 5669 5671 5673 5674 5675 5676 5677 5677 5676 5674 5672 5668 5663 5656 5648 5643 5639 5634 5629 5625 5619 5614
5570 5572 5572 5573 5571 5572 5574 5577 5581 5592 5597 5604 5610 5614 5617 5622 5627 5632 5636 5641 5644 5646 5649 5652 5656 5658 5659 5661 5663 5665 5666 5667 5668 5669 5669 5669 5667 5664 5660 5655 5648 5643 5638 5634 5629 5625 5621 5615 5610
5562 5561 5563 5563 5564 5565 5564 5569 5575 5581 5586 5591 5597 5603 5608 5612 5617 5621 5625 5629 5633 5636 5640 5643 5646 5648 5650 5653 5654 5656 5658 5659 5661 5661 5661 5661 5660 5657 5653 5649 5643 5638 5633 5629 5625 5621 5617 5613 5609
5552 5553 5553 5553 5557 5556 5554 5558 5568 5572 5579 5583 5586 5591 5596 5601 5606 5610 5614 5618 5623 5627 5631 5634 5637 5640 5642 5644 5646 5648 5649 5651 5653 5653 5654 5654 5653 5651 5647 5643 5639 5635 5631 5627 5623 5620 5616 5611 5606